This demonstration page uses our WeatherBlox Daily Observations layout. Learn more.

Hourly Observations for December 24, 2017

Temp ( °F °C ) Dew Point ( °F °C ) Humidity (%) Winds ( mph kmh ) Pressure ( in mb ) Visibility ( mi km ) Precip ( " mm )
12:02 am 00:02 Mostly Cloudy with Scattered Snow Showers 19 -7.2 16 -8.9 88 88 N 8 13 30.39 1029 0.75 1.207005 0 0.0254
12:43 am 00:43 Mostly Cloudy with Scattered Snow Showers 19 -7.2 17 -8.3 92 92 NNW 7 11 30.39 1029 1 1.60934 0.04 1.016
12:54 am 00:54 Cloudy with Light Snow 19 -7.2 16 -8.9 88 88 NNW 7 11 30.37 1029 1.25 2.011675 0.04 1.016
1:05 am 01:05 Cloudy with Light Snow 19 -7.2 16 -8.9 88 88 N 8 13 30.39 1029 1.5 2.41401 0 0.0254
1:28 am 01:28 Mostly Cloudy with Scattered Snow Showers 19 -7.2 16 -8.9 88 88 N 8 13 30.39 1029 0.75 1.207005 0.01 0.254
1:37 am 01:37 Mostly Cloudy with Scattered Snow Showers 19 -7.2 15 -9.4 84 84 N 12 19 30.39 1029 1 1.60934 0.02 0.508
1:54 am 01:54 Mostly Cloudy with Scattered Snow Showers 18 -7.8 15 -9.4 88 88 N 9 15 30.37 1028 1 1.60934 0.02 0.508
2:19 am 02:19 Mostly Cloudy with Scattered Snow Showers 18 -7.8 16 -8.9 92 92 N 8 13 30.42 1030 0.75 1.207005 0.01 0.254
2:31 am 02:31 Mostly Cloudy with Scattered Snow Showers 19 -7.2 16 -8.9 88 88 NNW 9 15 30.42 1030 1 1.60934 0.03 0.762
2:49 am 02:49 Cloudy with Light Snow 19 -7 16 -9 86 86 NNW 7 11 30.42 1030 1.25 2.011675 0.04 1.016
2:54 am 02:54 Cloudy with Light Snow 19 -7.2 16 -8.9 88 88 NNW 7 11 30.38 1029 1.5 2.41401 0.04 1.016
3:10 am 03:10 Cloudy with Light Snow 19 -7.2 16 -8.9 88 88 NNW 7 11 30.42 1030 1.5 2.41401 0.01 0.254
3:48 am 03:48 Cloudy with Light Snow 19 -7 16 -9 86 86 NNW 8 13 30.39 1029 2 3.21868 0.01 0.254
3:54 am 03:54 Cloudy with Light Snow 18 -7.8 16 -8.9 92 92 NW 7 11 30.36 1028 2.5 4.02335 0.01 0.254
4:02 am 04:02 Cloudy with Light Snow 18 -7.8 15 -9.4 88 88 NNW 12 19 30.39 1029 3 4.82802 0 0.0254
4:54 am 04:54 Cloudy with Light Snow 18 -7.8 14 -10 84 84 WNW 6 9 30.37 1028 3 4.82802 0 0.0254
5:54 am 05:54 Cloudy with Light Snow 17 -8.3 13 -10.6 84 84 WNW 9 15 30.36 1028 3 4.82802 0 0.0254
6:37 am 06:37 Mostly Cloudy 15 -9.4 11 -11.7 84 84 WNW 8 13 30.39 1029 10 16.0934 0.01 0.254
6:44 am 06:44 Partly Cloudy 15 -9.4 11 -11.7 84 84 WNW 7 11 30.39 1029 10 16.0934 0.01 0.254
6:54 am 06:54 Clear 14 -10 10 -12.2 84 84 WNW 8 13 30.36 1028 10 16.0934 0.01 0.254
7:54 am 07:54 Sunny 13 -10.6 9 -12.8 84 84 WNW 12 19 30.38 1029 10 16.0934 0 0
8:54 am 08:54 Sunny 14 -10 8 -13.3 77 77 WNW 10 17 30.39 1029 10 16.0934 0 0
9:54 am 09:54 Sunny 15 -9.4 7 -13.9 70 70 NW 8 13 30.41 1030 10 16.0934 0 0
10:54 am 10:54 Sunny 17 -8.3 6 -14.4 62 62 NW 10 17 30.42 1030 10 16.0934 0 0
11:54 am 11:54 Sunny 19 -7.2 8 -13.3 62 62 WNW 13 20 30.4 1029 10 16.0934 0 0
12:54 pm 12:54 Sunny 19 -7.2 9 -12.8 65 65 W 9 15 30.37 1028 10 16.0934 0 0
1:54 pm 13:54 Sunny 20 -6.7 9 -12.8 62 62 W 7 11 30.36 1028 10 16.0934 0 0
2:54 pm 14:54 Sunny 20 -6.7 9 -12.8 62 62 W 8 13 30.34 1027 10 16.0934 0 0
3:54 pm 15:54 Sunny 20 -6.7 8 -13.3 60 60 W 12 19 30.35 1028 10 16.0934 0 0
4:54 pm 16:54 Sunny 16 -8.9 7 -13.9 67 67 WSW 9 15 30.36 1028 10 16.0934 0 0
5:54 pm 17:54 Clear 14 -10 5 -15 67 67 WSW 10 17 30.36 1028 10 16.0934 0 0
6:54 pm 18:54 Clear 12 -11.1 5 -15 73 73 WSW 9 15 30.37 1028 10 16.0934 0 0
7:54 pm 19:54 Clear 12 -11.1 4 -15.6 70 70 W 8 13 30.39 1029 10 16.0934 0 0
8:54 pm 20:54 Clear 11 -11.7 4 -15.6 73 73 Calm 30.4 1029 10 16.0934 0 0
9:54 pm 21:54 Clear 11 -11.7 3 -16.1 70 70 WNW 3 6 30.4 1030 10 16.0934 0 0
10:54 pm 22:54 Clear 11 -11.7 2 -16.7 67 67 WSW 5 7 30.41 1030 10 16.0934 0 0
11:54 pm 23:54 Clear 7 -13.9 0 -17.8 73 73 SSE 3 6 30.43 1031 10 16.0934 0 0

Powered by AerisWeather